www.pogodaiklimat.ru

Погода и климат >> Архив погоды >> Кувейт >> Метеостанция Mintribah


ПОГОДА на Метеостанции Mintribah

  • Прогноз погоды на Метеостанции Mintribah
  • Монитор погоды на Метеостанции Mintribah

АРХИВ ПОГОДЫ на Метеостанции Mintribah

Время (UTC), дата Ветер
(напр.,м/с)
 
Видим.   Явления Облачность Т
(С)
Тd
(С)
f
(%)
Тe
(С)
Тes
(С)
Комфортность P
(гПа)
Po
(гПа)
Тmin
(С)
Tmax
(С)
R
(мм)
R24
(мм)
S
(см)
09 19.03 З 6-9
{9}
20 км н/о +24.5 -2.7 16 +23 +23 комфорт 1018.9 1005.1
12 19.03 СЗ 8-11
{12}
20 км н/о +25.3 0.0 19 +24 +24 комфорт 1016.7 1002.9
15 19.03 СЗ 5-6
{12}
20 км н/о +21.3 +0.2 24 +21 +21 комфорт 1016.9 1003.0
18 19.03 С 3-3
{12}
19 км н/о +16.6 +2.4 38 +17 +17 1018.3 1004.1
21 19.03 СВ 1-2
{3}
20 км н/о +15.9 +1.4 37 +17 +17 1017.4 1003.2 +8.0 +26.3
00 20.03 В 2-2
{3}
20 км н/о +13.6 +1.7 44 +14 +14 1016.0 1001.7
03 20.03 Ю 2-4
{4}
20 км н/о +10.2 +3.1 61 +9 +9 1017.3 1002.8
06 20.03 ЮВ 2-4
{6}
20 км н/о +20.1 +2.4 31 +21 +21 комфорт 1017.3 1003.3
09 20.03 СВ 3-5
{6}
20 км н/о +25.0 +2.1 22 +24 +24 комфорт 1015.0 1001.2
12 20.03 СВ 3-6
{8}
20 км н/о +26.0 +1.0 20 +24 +24 комфорт 1013.1 999.4
15 20.03 СВ 2-3
{6}
20 км н/о +22.6 +1.8 25 +22 +22 комфорт 1014.0 1000.2
18 20.03 ЮВ 2-4
{6}
20 км н/о +18.3 +2.4 35 +19 +19 1015.3 1001.2
21 20.03 СВ 2-3
{7}
20 км н/о +15.4 +3.5 45 +15 +15 1015.0 1000.8 +10.1 +26.9
00 21.03 В 1-1
{7}
20 км н/о +14.1 +3.6 49 +15 +15 1014.4 1000.1
03 21.03 З 2-2
{4}
18 км н/о +12.9 +4.2 55 +13 +13 1016.0 1001.7
06 21.03 СВ 5-6
{6}
20 км н/о +21.1 +4.7 34 +21 +21 комфорт 1016.7 1002.7
09 21.03 ЮВ 3-5
{8}
20 км н/о +25.4 +3.8 25 +25 +25 комфорт 1015.6 1001.9
12 21.03 С 3-6
{8}
20 км н/о +27.3 +3.0 21 +26 +26 жарко 1013.0 999.4
15 21.03 С 3-4
{6}
19 км н/о +24.7 +3.3 25 +24 +24 комфорт 1013.7 1000.0
18 21.03 В 1-2
{6}
20 км н/о +19.6 +3.0 33 +21 +21 комфорт 1015.5 1001.5
21 21.03 С 4-4
{4}
20 км н/о +16.4 +5.5 48 +16 +16 1015.7 1001.5 +12.6 +28.3
00 22.03 СЗ 3-3
{4}
20 км н/о +14.6 +6.3 57 +14 +14 1015.3 1001.1
03 22.03 СЗ 3-3
{4}
19 км н/о +12.8 +5.7 62 +12 +12 1016.7 1002.3
06 22.03 СВ 3-5
{5}
19 км н/о +22.4 +5.3 33 +23 +23 комфорт 1017.2 1003.3
09 22.03 С 3-5
{6}
19 км н/о +27.2 +5.0 24 +26 +26 жарко 1016.1 1002.4
12 22.03 СВ 3-5
{7}
20 км н/о +28.6 +3.3 20 +27 +27 жарко 1013.3 999.7
15 22.03 С 4-5
{6}
18 км н/о +25.1 +2.5 23 +24 +24 комфорт 1013.4 999.7
18 22.03 СВ 3-3
{7}
19 км н/о +20.3 +3.2 32 +21 +21 комфорт 1016.2 1002.2
21 22.03 С 2-2
{6}
20 км н/о +17.9 +3.7 39 +19 +19 1015.9 1001.8 +12.8 +29.7
00 23.03 С 2-3
{6}
20 км н/о +16.0 +5.0 48 +16 +16 1014.8 1000.6
03 23.03 СЗ 3-4
{4}
20 км н/о +14.5 +4.8 52 +14 +14 1015.3 1001.0
06 23.03 С 7-8
{8}
20 км н/о +21.1 +5.7 37 +22 +22 комфорт 1015.4 1001.5
09 23.03 С 4-6
{9}
20 км н/о +25.1 +1.5 21 +24 +24 комфорт 1014.0 1000.3
12 23.03 СВ 6-8
{9}
20 км н/о +28.7 +1.1 17 +26 +26 жарко 1010.9 997.4
15 23.03 В 3-5
{10}
20 км н/о +25.0 +2.1 22 +24 +24 комфорт 1010.9 997.2
18 23.03 ЮВ 4-4
{10}
20 км н/о +20.4 +3.6 33 +21 +21 комфорт 1012.1 998.2
21 23.03 В 3-4
{4}
20 км н/о +18.8 +1.7 32 +19 +19 1010.8 996.8 +14.0 +29.6
00 24.03 В 1-2
{5}
20 км н/о +17.9 +6.3 47 +19 +19 1009.7 995.7
03 24.03 ЮВ 4-5
{5}
19 км н/о +17.2 +6.8 50 +17 +17 1009.7 995.7
06 24.03 ЮВ 12-17
{17}
10 км н/о +23.2 +13.6 55 +27 +27 душно 1008.4 994.7
09 24.03 ЮВ 7-13
{17}
10 км н/о +27.7 +14.6 45 +30 +30 жарко 1006.4 992.9
12 24.03 В 7-11
{17}
16 км н/о +24.7 +14.6 53 +27 +27 жарко 1003.9 990.3
15 24.03 В 9-13
{13}
17 км н/о +21.7 +16.3 71 +25 +25 комфорт 1003.0 989.3
18 24.03 В 4-8
{14}
12 км н/о +20.3 +18.2 88 +24 +24 комфорт 1002.1 988.3
21 24.03 В 6-10
{12}
8000 м дымка н/о +21.2 +18.3 84 +25 +25 комфорт 999.1 985.4 +16.7 +28.7
00 25.03 В 4-10
{13}
5000 м дымка {ливн. осадки, дождь} н/о +21.1 +18.3 84 +25 +25 комфорт 999.1 985.4
03 25.03 ЮВ 11-16
{21}
1200 м дымка н/о +22.2 +16.8 71 +27 +27 душно 998.6 984.9
06 25.03 Ю 5-8
{21}
4400 м в посл. час дождь {ливн. осадки} н/о +25.1 +13.2 48 +27 +27 жарко 1001.2 987.6
09 25.03 З 4-6
{9}
17 км слаб. ливневой дождь н/о +22.1 +15.8 67 +26 +26 душно 1003.6 989.9
12 25.03 В 3-6
{9}
18 км {ливн. осадки, дождь} н/о +24.1 +13.4 51 +26 +26 жарко 1003.7 990.1
15 25.03 В 4-5
{9}
10 км н/о +20.5 +14.7 69 +23 +23 комфорт 1003.9 990.1
18 25.03 ЮВ 2-4
{9}
3700 м дымка н/о +19.1 +19.1 100 +22 +22 комфорт 1005.2 991.3
21 25.03 ЮВ 2-5
{7}
1400 м в посл. час туман {дымка} н/о +18.4 +18.4 100 +20 +20 1005.0 991.1 +18.3 +25.7
00 26.03 В 3-5
{7}
1900 м в посл. час туман {дымка} н/о +18.6 +18.6 100 +20 +20 1003.2 989.3
03 26.03 Ю 7-9
{15}
900 м туман {дымка} н/о +20.3 +10.6 54 +22 +22 комфорт 1003.7 989.9
06 26.03 З 12-16
{16}
15 км {туман, дымка} н/о +18.8 +10.5 59 +18 +18 1009.3 995.3

 

Местоположение метеостанции Метеостанция Mintribah (Кувейт): широта 29.82 долгота 47.37 высота над уровнем моря 119 м.

В архиве по умолчанию представлена погода на Метеостанции Mintribah за последнюю неделю. Архивные данные за месяц целиком и за предыдущие месяцы, начиная с января 2011 года, Вы можете получить, выбрав интересующий диапазон дат из раскрывающегося списка и нажав кнопку "Ввод!".


*Определитесь, кто Вы:
робот инопланетянин человек

Внимание! Время в таблицах - всемирное. Для получения местного времени необходимо прибавить поправку, которая равна 3 ч.

Смотрите также архив погоды в соседних городах и на ближайших метеорологических станциях:

Погода на Метеостанции Jal Aliyah (Кувейт) (31 км)
Погода в Абдали (Кувейт) (43 км)
Погода на Метеостанции Sabriyah (Кувейт) (47 км)
Погода в Эль-Джахра (Кувейт) (63 км)
Погода на Абраке Аль Хабари (Кувейт) (68 км)
Погода в Сулайбии (Кувейт) (70 км)
Погода на Экспериментальной ферме (Кувейт) (81 км)
Погода в Минагише (Кувейт) (85 км)
Погода в Кувейт Сити (Кувейт) (85 км)
Погода в Басре аэропорт (Ирак) (87 км)

Пояснения к столбцам:

Ветер - указаны скорость ветра в м/с - средняя за 10 мин, порывы в срок и между сроками (в фигурных скобках) и направление, откуда дует ветер: С - северный, СВ - северо-восточный, В - восточный, ЮВ - юго-восточный, Ю - южный, ЮЗ - юго-западный, З - западный, СЗ - северо-западный.
Видимость - горизонтальная дальность видимости в метрах или километрах. При видимости от 1 до 10 км при отсутствии осадков обычно наблюдается дымка, при ухудшении видимости до 1 км и менее - туман. В сухую погоду видимость может ухудшаться дымом, пылью или мглою.
Явления - указаны атмосферные явления, наблюдавшиеся в срок или в последний час перед сроком; фигурными скобками обозначены явления, наблюдавшиеся между сроками (за 1-3 часа до срока); квадратными скобками обозначены град или гололедные отложения с указанием их диаметра в мм.
Облачность - указаны через наклонную черту общая и нижняя облачность в баллах и высота нижней границы облаков в метрах; квадратными скобками обозначены формы облаков: Ci - перистые, Cs - перисто-слоистые, Cc - перисто-кучевые, Ac - высококучевые, As - высокослоистые, Sc - слоисто-кучевые, Ns - слоисто-дождевые, Cu - кучевые, Cb - кучево-дождевые. Подробнее классификацию облаков см. в Атласе облаков (PDF).
T - Температура воздуха - температура, измеренная на высоте 2 м над землей.
Td - Температура точки росы - температура, при понижении до которой содержащийся в воздухе водяной пар достигнет насыщения.
f - Относительная влажность воздуха - влажноcть воздуха, измеренная на высоте 2 м над землей.
Te - Эффективная температура - температура, которую ощущает одетый по сезону человек в тени. Характеристика душности погоды. При расчете учитывается влияние влажности воздуха и скорости ветра на теплоощущения человека.
Tes - Эффективная температура на солнце - температура, которую ощущает человек, с поправкой на солнечный нагрев. Характеристика знойности погоды. Зависит от высоты солнца над горизонтом, облачности и скорости ветра. Ночью, в пасмурную погоду, а также при ветре 12 м/с и более поправка равна нулю.
P - Атмосферное давление - приведенное к уровню моря атмосферное давление.
Po - Атмосферное давление - измеренное на уровне метеостанции атмосферное давление.
Tmin - Минимальная температура - минимум температуры воздуха на высоте 2 м над землей.
Tmax - Максимальная температура - максимум температуры воздуха на высоте 2 м над землей.
R - Количество осадков - Количество выпавших осадков за период времени, мм. При наведении курсора мыши на число - период времени, за который выпало указанное количество осадков.
R24 - Количество осадков - Количество выпавших осадков за 24 часа, мм.
S - Снежный покров - Высота снежного покрова, см. При наведении курсора мыши на число - состояние снежного покрова и степень покрытия местности в баллах.